SWA5150 KPIT-KSAN

Flight info

Callsign SWA5150
Flight time 4h 50m
Altitude 34000
Route DILNE TVTRN VHP J110 TILMN/N0461F360 J110 COWES WELTS ANX FRACA WUPNU KYLER KK45A KENTO J18 FTI KA33U SJN J18 PXR HOGGZ LUCKI1
Aircraft B38M/M-SDE1FGHILORVWXY/HB1

Departure

Time 2026-04-25 10:20
Airport Pittsburgh International Airport (KPIT)

Arrival

Time 2026-04-25 15:11
Airport San Diego International Airport (KSAN)
Time Latitude Longitude Altitude Speed Heading
2026-04-25 09:54 40.49856 -80.24192 1158 ft 0 kts 172°
2026-04-25 09:56 40.49849 -80.24191 1158 ft 0 kts 172°
2026-04-25 10:12 40.49880 -80.24193 1156 ft 2 kts 177°
2026-04-25 10:13 40.49897 -80.24197 1156 ft 3 kts 146°
2026-04-25 10:13 40.49908 -80.24215 1155 ft 3 kts 107°
2026-04-25 10:13 40.49911 -80.24236 1157 ft 0 kts 92°
2026-04-25 10:15 40.49911 -80.24235 1157 ft 1 kts 92°
2026-04-25 10:15 40.49911 -80.24224 1158 ft 2 kts 92°
2026-04-25 10:15 40.49910 -80.24202 1158 ft 3 kts 92°
2026-04-25 10:16 40.49909 -80.24169 1158 ft 4 kts 92°
2026-04-25 10:16 40.49908 -80.24125 1158 ft 5 kts 92°
2026-04-25 10:16 40.49907 -80.24071 1158 ft 7 kts 91°
2026-04-25 10:16 40.49906 -80.24006 1158 ft 8 kts 91°
2026-04-25 10:17 40.49904 -80.23931 1158 ft 9 kts 90°
2026-04-25 10:17 40.49938 -80.23870 1157 ft 9 kts 15°
2026-04-25 10:17 40.50006 -80.23860 1157 ft 11 kts 18°
2026-04-25 10:17 40.50037 -80.23774 1156 ft 12 kts 90°
2026-04-25 10:18 40.50035 -80.23659 1156 ft 13 kts 91°
2026-04-25 10:18 40.50031 -80.23534 1155 ft 14 kts 92°
2026-04-25 10:18 40.50028 -80.23428 1155 ft 7 kts 91°
2026-04-25 10:18 40.50047 -80.23368 1155 ft 8 kts 30°
2026-04-25 10:19 40.50112 -80.23383 1152 ft 12 kts 322°
2026-04-25 10:19 40.50140 -80.23484 1152 ft 12 kts 273°
2026-04-25 10:19 40.50145 -80.23673 1152 ft 48 kts 272°
2026-04-25 10:19 40.50165 -80.24453 1156 ft 121 kts 272°
2026-04-25 10:20 40.50200 -80.25845 1154 ft 181 kts 272°
2026-04-25 10:20 40.50252 -80.27693 1385 ft 220 kts 272°
2026-04-25 10:20 40.50324 -80.29859 1876 ft 245 kts 272°
2026-04-25 10:20 40.50164 -80.32055 2450 ft 240 kts 262°
2026-04-25 10:21 40.49940 -80.34188 3042 ft 238 kts 263°
2026-04-25 10:21 40.49756 -80.36346 3641 ft 237 kts 264°
2026-04-25 10:21 40.49599 -80.38503 4229 ft 236 kts 265°
2026-04-25 10:21 40.49459 -80.40643 4819 ft 235 kts 265°
2026-04-25 10:22 40.49329 -80.42782 5390 ft 235 kts 264°
2026-04-25 10:22 40.49203 -80.44926 5968 ft 235 kts 264°
2026-04-25 10:22 40.49081 -80.47067 6618 ft 235 kts 264°
2026-04-25 10:22 40.48961 -80.49221 7269 ft 238 kts 264°
2026-04-25 10:23 40.48841 -80.51398 7960 ft 241 kts 263°
2026-04-25 10:23 40.48718 -80.53607 8654 ft 243 kts 264°
2026-04-25 10:23 40.48595 -80.55833 9368 ft 245 kts 262°
2026-04-25 10:23 40.48469 -80.58114 9906 ft 257 kts 262°
2026-04-25 10:24 40.48331 -80.60535 10254 ft 275 kts 263°
2026-04-25 10:24 40.48185 -80.63132 10546 ft 295 kts 263°
2026-04-25 10:24 40.48029 -80.65903 10791 ft 314 kts 263°
2026-04-25 10:24 40.47863 -80.68850 11076 ft 331 kts 263°
2026-04-25 10:25 40.47690 -80.71923 11421 ft 344 kts 263°
2026-04-25 10:25 40.47509 -80.75100 11945 ft 351 kts 263°
2026-04-25 10:25 40.47326 -80.78309 12584 ft 354 kts 264°
2026-04-25 10:25 40.47139 -80.81551 13228 ft 358 kts 264°
2026-04-25 10:26 40.46950 -80.84819 13848 ft 361 kts 264°
2026-04-25 10:26 40.46807 -80.88131 14393 ft 365 kts 268°
2026-04-25 10:26 40.46830 -80.91477 15004 ft 368 kts 269°
2026-04-25 10:26 40.46836 -80.94853 15565 ft 372 kts 268°
2026-04-25 10:27 40.46831 -80.98217 16133 ft 374 kts 268°
2026-04-25 10:27 40.46819 -81.01646 16705 ft 377 kts 268°
2026-04-25 10:27 40.46803 -81.05153 17232 ft 381 kts 268°
2026-04-25 10:27 40.46786 -81.08602 17766 ft 384 kts 268°
2026-04-25 10:28 40.46768 -81.12114 18299 ft 386 kts 268°
2026-04-25 10:28 40.46748 -81.15704 18744 ft 390 kts 268°
2026-04-25 10:28 40.46728 -81.19214 19251 ft 391 kts 268°
2026-04-25 10:28 40.46706 -81.22804 19708 ft 394 kts 268°
2026-04-25 10:29 40.46683 -81.26407 20198 ft 396 kts 268°
2026-04-25 10:29 40.46659 -81.30032 20658 ft 399 kts 268°
2026-04-25 10:29 40.46633 -81.33695 21044 ft 403 kts 268°
2026-04-25 10:29 40.46607 -81.37377 21538 ft 404 kts 268°
2026-04-25 10:30 40.46579 -81.41086 21920 ft 408 kts 268°
2026-04-25 10:30 40.46559 -81.43552 22244 ft 409 kts 268°
2026-04-25 10:30 40.46518 -81.48569 22790 ft 412 kts 268°
2026-04-25 10:30 40.46485 -81.52340 23221 ft 415 kts 268°
2026-04-25 10:31 40.46451 -81.56137 23600 ft 417 kts 268°
2026-04-25 10:31 40.46416 -81.59953 23915 ft 419 kts 268°
2026-04-25 10:31 40.46379 -81.63788 24273 ft 421 kts 268°
2026-04-25 10:31 40.46341 -81.67641 24608 ft 424 kts 267°
2026-04-25 10:32 40.46301 -81.71536 24847 ft 429 kts 267°
2026-04-25 10:32 40.46259 -81.75450 25262 ft 429 kts 267°
2026-04-25 10:32 40.46216 -81.79378 25569 ft 431 kts 267°
2026-04-25 10:32 40.46172 -81.83321 25916 ft 433 kts 267°
2026-04-25 10:33 40.46125 -81.87281 26256 ft 435 kts 266°
2026-04-25 10:33 40.46078 -81.91257 26588 ft 436 kts 266°
2026-04-25 10:33 40.46029 -81.95255 26918 ft 438 kts 266°
2026-04-25 10:33 40.45978 -81.99254 27241 ft 440 kts 266°
2026-04-25 10:34 40.45926 -82.03285 27553 ft 441 kts 266°
2026-04-25 10:34 40.45873 -82.07315 27866 ft 443 kts 266°
2026-04-25 10:34 40.45818 -82.11367 28178 ft 445 kts 266°
2026-04-25 10:34 40.45484 -82.15387 28485 ft 442 kts 256°
2026-04-25 10:35 40.44908 -82.19343 28946 ft 441 kts 258°
2026-04-25 10:35 40.44382 -82.23310 29372 ft 440 kts 258°
2026-04-25 10:35 40.43864 -82.27202 29826 ft 438 kts 258°
2026-04-25 10:35 40.43341 -82.31128 30213 ft 436 kts 258°
2026-04-25 10:36 40.42818 -82.35035 30618 ft 434 kts 258°
2026-04-25 10:36 40.42295 -82.38925 31029 ft 431 kts 258°
2026-04-25 10:36 40.41775 -82.42784 31431 ft 429 kts 258°
2026-04-25 10:36 40.41256 -82.46631 31832 ft 426 kts 258°
2026-04-25 10:37 40.40738 -82.50453 32227 ft 424 kts 258°
2026-04-25 10:37 40.40223 -82.54248 32613 ft 422 kts 258°
2026-04-25 10:37 40.39709 -82.58026 32998 ft 420 kts 258°
2026-04-25 10:37 40.39197 -82.61781 33368 ft 417 kts 258°
2026-04-25 10:38 40.38686 -82.65518 33732 ft 416 kts 258°
2026-04-25 10:38 40.38174 -82.69253 33846 ft 416 kts 258°
2026-04-25 10:38 40.37662 -82.72973 33828 ft 413 kts 258°
2026-04-25 10:39 40.36641 -82.80368 33851 ft 413 kts 258°
2026-04-25 10:39 40.35612 -82.87792 33856 ft 414 kts 258°
2026-04-25 10:40 40.34730 -82.94126 33863 ft 414 kts 258°
2026-04-25 10:40 40.33692 -83.01548 33869 ft 414 kts 258°
2026-04-25 10:41 40.32679 -83.08753 33868 ft 414 kts 258°
2026-04-25 10:41 40.31771 -83.15188 33873 ft 414 kts 258°
2026-04-25 10:42 40.30897 -83.21349 33868 ft 413 kts 257°
2026-04-25 10:42 40.29845 -83.28741 33869 ft 413 kts 257°
2026-04-25 10:43 40.28785 -83.36145 33880 ft 413 kts 257°
2026-04-25 10:43 40.27722 -83.43542 33876 ft 413 kts 257°
2026-04-25 10:44 40.26655 -83.50927 33872 ft 413 kts 257°
2026-04-25 10:44 40.25583 -83.58313 33877 ft 413 kts 257°
2026-04-25 10:45 40.24512 -83.65655 33887 ft 413 kts 257°
2026-04-25 10:45 40.23430 -83.73041 33889 ft 413 kts 257°
2026-04-25 10:46 40.22343 -83.80430 33890 ft 413 kts 257°
2026-04-25 10:46 40.21251 -83.87812 33886 ft 413 kts 257°
2026-04-25 10:47 40.20155 -83.95192 33891 ft 413 kts 256°
2026-04-25 10:47 40.19054 -84.02569 33878 ft 413 kts 256°
2026-04-25 10:48 40.17949 -84.09939 33877 ft 413 kts 256°
2026-04-25 10:48 40.16838 -84.17319 33872 ft 413 kts 256°
2026-04-25 10:49 40.15723 -84.24687 33876 ft 413 kts 256°
2026-04-25 10:49 40.14605 -84.32047 33893 ft 412 kts 256°
2026-04-25 10:50 40.13488 -84.39367 33899 ft 410 kts 256°
2026-04-25 10:50 40.12366 -84.46684 33905 ft 411 kts 256°
2026-04-25 10:51 40.11239 -84.54000 33906 ft 410 kts 256°
2026-04-25 10:51 40.10117 -84.61255 33904 ft 410 kts 256°
2026-04-25 10:52 40.08982 -84.68560 33913 ft 410 kts 255°
2026-04-25 10:52 40.07845 -84.75851 33895 ft 410 kts 255°
2026-04-25 10:53 40.06702 -84.83143 33895 ft 410 kts 255°
2026-04-25 10:53 40.05555 -84.90429 33896 ft 410 kts 255°
2026-04-25 10:54 40.04403 -84.97717 33897 ft 410 kts 255°
2026-04-25 10:54 40.03247 -85.04999 33916 ft 410 kts 255°
2026-04-25 10:55 40.02088 -85.12269 33891 ft 409 kts 255°
2026-04-25 10:55 40.00924 -85.19541 33890 ft 409 kts 255°
2026-04-25 10:56 39.99755 -85.26809 33893 ft 409 kts 254°
2026-04-25 10:56 39.98582 -85.34074 33915 ft 409 kts 254°
2026-04-25 10:57 39.97403 -85.41346 33914 ft 409 kts 254°
2026-04-25 10:57 39.96230 -85.48547 33907 ft 408 kts 254°
2026-04-25 10:58 39.95047 -85.55781 33911 ft 408 kts 254°
2026-04-25 10:58 39.93863 -85.62997 33911 ft 408 kts 254°
2026-04-25 10:59 39.92668 -85.70240 33917 ft 408 kts 254°
2026-04-25 10:59 39.91473 -85.77462 33923 ft 408 kts 254°
2026-04-25 11:00 39.90273 -85.84682 33941 ft 408 kts 253°
2026-04-25 11:00 39.89074 -85.91867 33925 ft 407 kts 254°
2026-04-25 11:01 39.87866 -85.99080 33941 ft 408 kts 254°
2026-04-25 11:01 39.86655 -86.06288 33948 ft 408 kts 254°
2026-04-25 11:02 39.85439 -86.13503 33939 ft 408 kts 253°
2026-04-25 11:02 39.84220 -86.20703 33972 ft 406 kts 253°
2026-04-25 11:03 39.83019 -86.27769 33942 ft 398 kts 253°
2026-04-25 11:03 39.81824 -86.34775 33940 ft 398 kts 253°
2026-04-25 11:04 39.80588 -86.40725 33967 ft 396 kts 250°
2026-04-25 11:04 39.79146 -86.47446 33921 ft 396 kts 250°
2026-04-25 11:05 39.77883 -86.53391 33921 ft 397 kts 250°
2026-04-25 11:05 39.76403 -86.60348 33951 ft 396 kts 250°
2026-04-25 11:06 39.74942 -86.67197 33931 ft 396 kts 250°
2026-04-25 11:06 39.73462 -86.74112 33939 ft 397 kts 250°
2026-04-25 11:07 39.71978 -86.81021 33939 ft 397 kts 250°
2026-04-25 11:07 39.70492 -86.87925 33948 ft 397 kts 250°
2026-04-25 11:08 39.68999 -86.94831 33971 ft 397 kts 250°
2026-04-25 11:08 39.67504 -87.01728 33938 ft 397 kts 250°
2026-04-25 11:09 39.66004 -87.08628 33937 ft 397 kts 250°
2026-04-25 11:09 39.64499 -87.15527 33935 ft 397 kts 250°
2026-04-25 11:10 39.62990 -87.22423 33929 ft 397 kts 250°
2026-04-25 11:10 39.61478 -87.29311 33929 ft 397 kts 250°
2026-04-25 11:11 39.59962 -87.36198 33936 ft 397 kts 250°
2026-04-25 11:11 39.58443 -87.43072 33936 ft 397 kts 250°
2026-04-25 11:12 39.56921 -87.49943 33950 ft 397 kts 250°
2026-04-25 11:12 39.55395 -87.56810 33921 ft 397 kts 250°
2026-04-25 11:13 39.53860 -87.63696 33955 ft 399 kts 250°
2026-04-25 11:13 39.52317 -87.70594 33946 ft 399 kts 250°
2026-04-25 11:14 39.50774 -87.77483 33931 ft 397 kts 251°
2026-04-25 11:14 39.49227 -87.84347 33937 ft 398 kts 251°
2026-04-25 11:15 39.47672 -87.91212 33934 ft 398 kts 251°
2026-04-25 11:15 39.46123 -87.98037 33927 ft 398 kts 251°
2026-04-25 11:16 39.43778 -88.08330 33932 ft 397 kts 250°
2026-04-25 11:16 39.42207 -88.15200 33947 ft 399 kts 251°
2026-04-25 11:17 39.40628 -88.22087 33936 ft 399 kts 251°
2026-04-25 11:17 39.39043 -88.28977 33940 ft 400 kts 251°
2026-04-25 11:18 39.37455 -88.35859 33929 ft 400 kts 251°
2026-04-25 11:18 39.35864 -88.42735 33929 ft 400 kts 251°
2026-04-25 11:19 39.34267 -88.49616 33947 ft 401 kts 251°
2026-04-25 11:19 39.32660 -88.56517 33943 ft 401 kts 251°
2026-04-25 11:20 39.31049 -88.63416 33939 ft 401 kts 251°
2026-04-25 11:20 39.29433 -88.70317 33933 ft 401 kts 251°
2026-04-25 11:21 39.27865 -88.77179 33920 ft 402 kts 256°
2026-04-25 11:21 39.27290 -88.84420 33935 ft 405 kts 261°
2026-04-25 11:22 39.26791 -88.90429 33947 ft 406 kts 262°
2026-04-25 11:22 39.26117 -88.98894 33939 ft 408 kts 262°
2026-04-25 11:23 39.25537 -89.06173 33944 ft 408 kts 262°
2026-04-25 11:23 39.24952 -89.13452 33943 ft 408 kts 262°
2026-04-25 11:24 39.24364 -89.20728 33946 ft 408 kts 262°
2026-04-25 11:24 39.23769 -89.28022 33942 ft 411 kts 262°
2026-04-25 11:25 39.23165 -89.35371 33943 ft 412 kts 262°
2026-04-25 11:25 39.22557 -89.42714 33941 ft 412 kts 262°
2026-04-25 11:26 39.21944 -89.50055 33941 ft 412 kts 262°
2026-04-25 11:26 39.21326 -89.57401 33942 ft 412 kts 262°
2026-04-25 11:27 39.20703 -89.64750 33942 ft 412 kts 262°
2026-04-25 11:27 39.20182 -89.70853 33945 ft 412 kts 262°
2026-04-25 11:28 39.19444 -89.79438 33940 ft 412 kts 262°
2026-04-25 11:28 39.18808 -89.86771 33944 ft 412 kts 262°
2026-04-25 11:29 39.18167 -89.94111 33948 ft 412 kts 262°
2026-04-25 11:29 39.17522 -90.01449 33954 ft 413 kts 262°
2026-04-25 11:30 39.16871 -90.08788 33953 ft 415 kts 262°
2026-04-25 11:30 39.16211 -90.16181 33952 ft 415 kts 262°
2026-04-25 11:31 39.15655 -90.22370 33948 ft 415 kts 262°
2026-04-25 11:31 39.14878 -90.30959 33945 ft 415 kts 262°
2026-04-25 11:32 39.14319 -90.37093 33945 ft 415 kts 262°
2026-04-25 11:32 39.13640 -90.44490 33948 ft 417 kts 263°
2026-04-25 11:33 39.12955 -90.51902 33947 ft 417 kts 263°
2026-04-25 11:33 39.12265 -90.59315 33945 ft 417 kts 263°
2026-04-25 11:34 39.11572 -90.66715 33955 ft 415 kts 263°
2026-04-25 11:34 39.10877 -90.74078 33950 ft 414 kts 262°
2026-04-25 11:35 39.10177 -90.81448 33951 ft 415 kts 263°
2026-04-25 11:35 39.09470 -90.88832 33945 ft 415 kts 263°
2026-04-25 11:36 39.08760 -90.96212 33949 ft 415 kts 263°
2026-04-25 11:36 39.08045 -91.03589 33942 ft 415 kts 263°
2026-04-25 11:37 39.07325 -91.10966 33937 ft 415 kts 263°
2026-04-25 11:37 39.06600 -91.18340 33944 ft 416 kts 263°
2026-04-25 11:38 39.05875 -91.25672 33948 ft 416 kts 263°
2026-04-25 11:38 39.05136 -91.33100 33961 ft 416 kts 263°
2026-04-25 11:39 39.04401 -91.40429 33963 ft 416 kts 263°
2026-04-25 11:39 39.03658 -91.47801 33964 ft 416 kts 263°
2026-04-25 11:40 39.02911 -91.55178 33971 ft 416 kts 263°
2026-04-25 11:40 39.02159 -91.62554 33971 ft 416 kts 263°
2026-04-25 11:41 39.01402 -91.69942 33971 ft 416 kts 263°
2026-04-25 11:41 39.00679 -91.77324 33971 ft 416 kts 267°
2026-04-25 11:42 39.01018 -91.84732 33999 ft 417 kts 272°
2026-04-25 11:42 39.01344 -91.92156 33961 ft 416 kts 272°
2026-04-25 11:43 39.01685 -91.99585 33955 ft 416 kts 273°
2026-04-25 11:43 39.02024 -92.07009 33948 ft 416 kts 272°
2026-04-25 11:44 39.02357 -92.14395 33951 ft 416 kts 272°
2026-04-25 11:44 39.02687 -92.21823 33956 ft 416 kts 272°
2026-04-25 11:45 39.03014 -92.29302 33975 ft 416 kts 272°
2026-04-25 11:45 39.03335 -92.36743 33958 ft 417 kts 272°
2026-04-25 11:46 39.03649 -92.44132 33972 ft 417 kts 272°
2026-04-25 11:46 39.03960 -92.51580 33972 ft 417 kts 272°
2026-04-25 11:47 39.04267 -92.59029 33975 ft 417 kts 272°
2026-04-25 11:47 39.04569 -92.66472 33978 ft 417 kts 272°
2026-04-25 11:48 39.04867 -92.73939 33984 ft 419 kts 272°
2026-04-25 11:48 39.05162 -92.81434 33965 ft 419 kts 272°
2026-04-25 11:49 39.05452 -92.88933 33972 ft 419 kts 272°
2026-04-25 11:49 39.05736 -92.96426 33980 ft 419 kts 272°
2026-04-25 11:50 39.06017 -93.03923 33989 ft 419 kts 272°
2026-04-25 11:50 39.06292 -93.11425 33994 ft 421 kts 272°
2026-04-25 11:51 39.06564 -93.18951 33986 ft 421 kts 272°
2026-04-25 11:51 39.06828 -93.26432 33989 ft 421 kts 272°
2026-04-25 11:52 39.07090 -93.33952 33989 ft 421 kts 272°
2026-04-25 11:52 39.07349 -93.41535 33997 ft 421 kts 272°
2026-04-25 11:53 39.07599 -93.48995 33971 ft 420 kts 272°
2026-04-25 11:53 39.07846 -93.56511 33967 ft 420 kts 272°
2026-04-25 11:54 39.08087 -93.64023 33960 ft 420 kts 272°
2026-04-25 11:55 39.08441 -93.75284 33954 ft 420 kts 271°
2026-04-25 11:55 39.08671 -93.82798 33952 ft 420 kts 271°
2026-04-25 11:56 39.08897 -93.90331 33958 ft 421 kts 271°
2026-04-25 11:56 39.09120 -93.97871 33958 ft 421 kts 271°
2026-04-25 11:57 39.09338 -94.05410 33954 ft 421 kts 271°
2026-04-25 11:57 39.09271 -94.12934 33886 ft 421 kts 257°
2026-04-25 11:57 39.08274 -94.16453 34001 ft 418 kts 247°
2026-04-25 11:58 39.07159 -94.19873 33925 ft 423 kts 249°
2026-04-25 11:58 39.04944 -94.26886 33966 ft 425 kts 249°
2026-04-25 11:59 39.02655 -94.33905 33957 ft 426 kts 248°
2026-04-25 11:59 39.00342 -94.40932 33955 ft 426 kts 248°
2026-04-25 12:00 38.96869 -94.51450 33949 ft 426 kts 248°
2026-04-25 12:01 38.93385 -94.61962 33880 ft 427 kts 248°
2026-04-25 12:01 38.91050 -94.68982 33947 ft 427 kts 248°
2026-04-25 12:02 38.87542 -94.79502 33942 ft 427 kts 248°
2026-04-25 12:02 38.85197 -94.86510 33948 ft 427 kts 248°
2026-04-25 12:03 38.82848 -94.93515 33941 ft 427 kts 248°
2026-04-25 12:03 38.80498 -95.00505 33942 ft 427 kts 248°
2026-04-25 12:04 38.78160 -95.07442 33920 ft 426 kts 248°
2026-04-25 12:04 38.75815 -95.14383 33921 ft 423 kts 248°
2026-04-25 12:05 38.73474 -95.21295 33910 ft 423 kts 248°
2026-04-25 12:05 38.71128 -95.28207 33902 ft 423 kts 248°
2026-04-25 12:06 38.68780 -95.35110 33905 ft 422 kts 249°
2026-04-25 12:06 38.66443 -95.41961 33895 ft 419 kts 249°
2026-04-25 12:07 38.64107 -95.48794 33890 ft 419 kts 249°
2026-04-25 12:07 38.61767 -95.55623 33881 ft 419 kts 249°
2026-04-25 12:08 38.59423 -95.62447 33894 ft 419 kts 249°
2026-04-25 12:08 38.57076 -95.69264 33905 ft 419 kts 248°
2026-04-25 12:09 38.54727 -95.76070 33896 ft 417 kts 249°
2026-04-25 12:09 38.52389 -95.82831 33901 ft 416 kts 249°
2026-04-25 12:10 38.50048 -95.89586 33885 ft 415 kts 249°
2026-04-25 12:10 38.47716 -95.96296 33882 ft 413 kts 249°
2026-04-25 12:11 38.45382 -96.02996 33882 ft 413 kts 249°
2026-04-25 12:11 38.43057 -96.09656 33882 ft 413 kts 249°
2026-04-25 12:12 38.41104 -96.15240 33883 ft 410 kts 249°
2026-04-25 12:12 38.38398 -96.22959 33889 ft 410 kts 249°
2026-04-25 12:13 38.36065 -96.29598 33889 ft 410 kts 249°
2026-04-25 12:13 38.33729 -96.36228 33886 ft 410 kts 249°
2026-04-25 12:14 38.31389 -96.42858 33878 ft 410 kts 249°
2026-04-25 12:14 38.29045 -96.49482 33877 ft 409 kts 249°
2026-04-25 12:15 38.26709 -96.56069 33859 ft 408 kts 249°
2026-04-25 12:15 38.24370 -96.62658 33853 ft 408 kts 249°
2026-04-25 12:16 38.22028 -96.69237 33851 ft 408 kts 249°
2026-04-25 12:16 38.19684 -96.75809 33850 ft 408 kts 249°
2026-04-25 12:17 38.17607 -96.82490 33795 ft 403 kts 260°
2026-04-25 12:17 38.17025 -96.85966 33908 ft 403 kts 258°
2026-04-25 12:17 38.16361 -96.89420 33815 ft 401 kts 258°
2026-04-25 12:18 38.15065 -96.96293 33860 ft 401 kts 258°
2026-04-25 12:18 38.13777 -97.03175 33862 ft 400 kts 258°
2026-04-25 12:19 38.11848 -97.13446 33871 ft 400 kts 258°
2026-04-25 12:20 38.10554 -97.20309 33876 ft 400 kts 258°
2026-04-25 12:20 38.09255 -97.27175 33878 ft 400 kts 258°
2026-04-25 12:21 38.07953 -97.34035 33880 ft 400 kts 258°
2026-04-25 12:21 38.06645 -97.40898 33879 ft 400 kts 258°
2026-04-25 12:22 38.05335 -97.47754 33866 ft 400 kts 258°
2026-04-25 12:22 38.04243 -97.53448 33836 ft 400 kts 258°
2026-04-25 12:23 38.02712 -97.61405 33850 ft 399 kts 258°
2026-04-25 12:23 38.01613 -97.67104 33849 ft 396 kts 258°
2026-04-25 12:24 38.00298 -97.73894 33860 ft 397 kts 258°
2026-04-25 12:24 37.98978 -97.80690 33855 ft 396 kts 258°
2026-04-25 12:25 37.97656 -97.87470 33861 ft 396 kts 258°
2026-04-25 12:25 37.96338 -97.94209 33798 ft 396 kts 258°
2026-04-25 12:26 37.95009 -98.00981 33806 ft 395 kts 257°
2026-04-25 12:26 37.93684 -98.07716 33801 ft 394 kts 257°
2026-04-25 12:27 37.92355 -98.14448 33793 ft 394 kts 257°
2026-04-25 12:27 37.91023 -98.21181 33792 ft 394 kts 257°
2026-04-25 12:28 37.88940 -98.27560 33818 ft 396 kts 240°
2026-04-25 12:28 37.86046 -98.33504 33789 ft 396 kts 243°
2026-04-25 12:29 37.83180 -98.39462 33798 ft 394 kts 243°
2026-04-25 12:29 37.80414 -98.45424 33781 ft 390 kts 252°
2026-04-25 12:29 37.79721 -98.48699 33885 ft 384 kts 259°
2026-04-25 12:30 37.79069 -98.51995 33774 ft 389 kts 257°
2026-04-25 12:30 37.77753 -98.58598 33835 ft 388 kts 258°
2026-04-25 12:31 37.76479 -98.65226 33845 ft 388 kts 258°
2026-04-25 12:31 37.75216 -98.71854 33837 ft 388 kts 258°
2026-04-25 12:32 37.73953 -98.78460 33839 ft 385 kts 258°
2026-04-25 12:32 37.72691 -98.85047 33840 ft 386 kts 258°
2026-04-25 12:33 37.71434 -98.91587 33833 ft 386 kts 258°
2026-04-25 12:33 37.70165 -98.98164 33819 ft 386 kts 258°
2026-04-25 12:34 37.68893 -99.04740 33812 ft 385 kts 258°
2026-04-25 12:34 37.67616 -99.11316 33784 ft 386 kts 258°
2026-04-25 12:35 37.66333 -99.17906 33782 ft 387 kts 258°
2026-04-25 12:35 37.65047 -99.24488 33780 ft 387 kts 258°
2026-04-25 12:36 37.63755 -99.31082 33773 ft 387 kts 258°
2026-04-25 12:36 37.62461 -99.37661 33772 ft 387 kts 257°
2026-04-25 12:37 37.61163 -99.44244 33773 ft 386 kts 257°
2026-04-25 12:37 37.59861 -99.50823 33775 ft 387 kts 257°
2026-04-25 12:38 37.58552 -99.57414 33776 ft 387 kts 257°
2026-04-25 12:38 37.57240 -99.64005 33782 ft 387 kts 257°
2026-04-25 12:39 37.55925 -99.70589 33778 ft 388 kts 257°
2026-04-25 12:39 37.54606 -99.77173 33755 ft 387 kts 257°
2026-04-25 12:40 37.53285 -99.83742 33787 ft 387 kts 257°
2026-04-25 12:40 37.51971 -99.90268 33786 ft 386 kts 257°
2026-04-25 12:41 37.50648 -99.96820 33790 ft 386 kts 257°
2026-04-25 12:41 37.49196 -100.03347 33788 ft 387 kts 256°
2026-04-25 12:42 37.47685 -100.09847 33767 ft 387 kts 256°
2026-04-25 12:42 37.46181 -100.16344 33768 ft 387 kts 256°
2026-04-25 12:43 37.44672 -100.22845 33762 ft 387 kts 256°
2026-04-25 12:43 37.42401 -100.32600 33754 ft 387 kts 256°
2026-04-25 12:44 37.40883 -100.39097 33768 ft 387 kts 256°
2026-04-25 12:45 37.38600 -100.48836 33756 ft 387 kts 256°
2026-04-25 12:45 37.36308 -100.58574 33751 ft 387 kts 256°
2026-04-25 12:46 37.34774 -100.65065 33757 ft 387 kts 256°
2026-04-25 12:46 37.33247 -100.71511 33758 ft 387 kts 256°
2026-04-25 12:47 37.31707 -100.77997 33754 ft 387 kts 255°
2026-04-25 12:47 37.30154 -100.84516 33752 ft 387 kts 255°
2026-04-25 12:48 37.28618 -100.90950 33744 ft 387 kts 255°
2026-04-25 12:48 37.27066 -100.97433 33744 ft 387 kts 255°
2026-04-25 12:49 37.25511 -101.03909 33791 ft 387 kts 255°
2026-04-25 12:49 37.23952 -101.10386 33788 ft 387 kts 255°
2026-04-25 12:50 37.22391 -101.16855 33787 ft 387 kts 255°
2026-04-25 12:50 37.20826 -101.23321 33772 ft 387 kts 255°
2026-04-25 12:51 37.19257 -101.29787 33870 ft 387 kts 255°
2026-04-25 12:51 37.17699 -101.36193 33858 ft 386 kts 255°
2026-04-25 12:52 37.16120 -101.42665 33833 ft 386 kts 255°
2026-04-25 12:52 37.14564 -101.49030 33857 ft 383 kts 255°
2026-04-25 12:53 37.12998 -101.55416 33832 ft 384 kts 255°
2026-04-25 12:53 37.11426 -101.61807 33803 ft 384 kts 255°
2026-04-25 12:54 37.09853 -101.68189 33853 ft 383 kts 255°
2026-04-25 12:54 37.08282 -101.74549 33887 ft 381 kts 255°
2026-04-25 12:55 37.06966 -101.79863 33910 ft 381 kts 255°
2026-04-25 12:55 37.05137 -101.87229 33919 ft 381 kts 255°
2026-04-25 12:56 37.03557 -101.93572 33908 ft 381 kts 255°
2026-04-25 12:56 37.01975 -101.99908 33909 ft 381 kts 255°
2026-04-25 12:57 37.00391 -102.06239 33889 ft 380 kts 255°
2026-04-25 12:57 36.98826 -102.12475 33848 ft 377 kts 255°
2026-04-25 12:58 36.97249 -102.18741 33803 ft 378 kts 255°
2026-04-25 12:58 36.95669 -102.25006 33742 ft 378 kts 255°
2026-04-25 12:59 36.94086 -102.31270 33742 ft 378 kts 255°
2026-04-25 12:59 36.92501 -102.37525 33753 ft 378 kts 255°
2026-04-25 13:00 36.91437 -102.41716 33782 ft 377 kts 255°
2026-04-25 13:00 36.89340 -102.49948 33765 ft 372 kts 255°
2026-04-25 13:01 36.87764 -102.56122 33765 ft 373 kts 255°
2026-04-25 13:01 36.86185 -102.62292 33762 ft 373 kts 255°
2026-04-25 13:02 36.84602 -102.68462 33766 ft 373 kts 255°
2026-04-25 13:02 36.83015 -102.74632 33753 ft 373 kts 255°
2026-04-25 13:03 36.81427 -102.80793 33755 ft 374 kts 254°
2026-04-25 13:03 36.79831 -102.86973 33754 ft 374 kts 254°
2026-04-25 13:04 36.78233 -102.93153 33748 ft 374 kts 254°
2026-04-25 13:04 36.76632 -102.99320 33751 ft 374 kts 254°
2026-04-25 13:05 36.75030 -103.05483 33737 ft 372 kts 255°
2026-04-25 13:05 36.73251 -103.11527 33740 ft 374 kts 247°
2026-04-25 13:06 36.70307 -103.16959 33739 ft 383 kts 237°
2026-04-25 13:06 36.67386 -103.22406 33804 ft 378 kts 243°
2026-04-25 13:07 36.65973 -103.25184 33688 ft 379 kts 243°
2026-04-25 13:07 36.64571 -103.27905 33739 ft 378 kts 243°
2026-04-25 13:07 36.61696 -103.33460 33745 ft 379 kts 243°
2026-04-25 13:08 36.58854 -103.38935 33751 ft 379 kts 243°
2026-04-25 13:08 36.55989 -103.44444 33804 ft 379 kts 243°
2026-04-25 13:09 36.53122 -103.49949 33751 ft 379 kts 243°
2026-04-25 13:09 36.50242 -103.55469 33770 ft 382 kts 243°
2026-04-25 13:10 36.47345 -103.61011 33747 ft 382 kts 242°
2026-04-25 13:10 36.44452 -103.66538 33700 ft 382 kts 243°
2026-04-25 13:11 36.41550 -103.72076 33748 ft 383 kts 243°
2026-04-25 13:11 36.38642 -103.77611 33745 ft 383 kts 243°
2026-04-25 13:12 36.35730 -103.83149 33751 ft 383 kts 243°
2026-04-25 13:12 36.33781 -103.86850 33722 ft 384 kts 243°
2026-04-25 13:13 36.30360 -103.93334 33757 ft 388 kts 243°
2026-04-25 13:13 36.27408 -103.98919 33753 ft 387 kts 243°
2026-04-25 13:14 36.24455 -104.04499 33759 ft 388 kts 243°
2026-04-25 13:14 36.21497 -104.10079 33758 ft 387 kts 243°
2026-04-25 13:15 36.18533 -104.15659 33751 ft 387 kts 243°
2026-04-25 13:15 36.15571 -104.21229 33745 ft 388 kts 243°
2026-04-25 13:16 36.12609 -104.26791 33696 ft 392 kts 243°
2026-04-25 13:16 36.09600 -104.32429 33743 ft 393 kts 243°
2026-04-25 13:17 36.06590 -104.38059 33752 ft 393 kts 243°
2026-04-25 13:17 36.03578 -104.43685 33751 ft 392 kts 243°
2026-04-25 13:18 36.00566 -104.49302 33750 ft 392 kts 243°
2026-04-25 13:18 35.97550 -104.54916 33731 ft 392 kts 243°
2026-04-25 13:19 35.94535 -104.60521 33744 ft 392 kts 243°
2026-04-25 13:19 35.92025 -104.65179 33739 ft 392 kts 243°
2026-04-25 13:20 35.88492 -104.71727 33746 ft 392 kts 243°
2026-04-25 13:20 35.85464 -104.77326 33753 ft 392 kts 243°
2026-04-25 13:21 35.82436 -104.82918 33752 ft 392 kts 243°
2026-04-25 13:21 35.79413 -104.88491 33742 ft 389 kts 243°
2026-04-25 13:22 35.76404 -104.94031 33734 ft 389 kts 243°
2026-04-25 13:23 35.71898 -105.02313 33969 ft 388 kts 243°
2026-04-25 13:23 35.68914 -105.07786 34000 ft 388 kts 243°
2026-04-25 13:24 35.66058 -105.13378 33965 ft 379 kts 254°
2026-04-25 13:24 35.64782 -105.19560 33956 ft 375 kts 260°
2026-04-25 13:25 35.63591 -105.25782 33998 ft 375 kts 261°
2026-04-25 13:25 35.62451 -105.32015 33961 ft 372 kts 261°
2026-04-25 13:26 35.61333 -105.38201 33905 ft 370 kts 261°
2026-04-25 13:26 35.60216 -105.44379 33865 ft 370 kts 261°
2026-04-25 13:27 35.59096 -105.50549 33839 ft 370 kts 261°
2026-04-25 13:27 35.57974 -105.56720 33800 ft 371 kts 261°
2026-04-25 13:28 35.56845 -105.62901 33781 ft 371 kts 261°
2026-04-25 13:28 35.55723 -105.69027 33823 ft 363 kts 261°
2026-04-25 13:29 35.54615 -105.75064 33805 ft 363 kts 261°
2026-04-25 13:29 35.53501 -105.81108 33800 ft 363 kts 261°
2026-04-25 13:30 35.51827 -105.90166 33802 ft 363 kts 261°
2026-04-25 13:31 35.50142 -105.99222 33979 ft 363 kts 259°
2026-04-25 13:31 35.48333 -106.05071 34023 ft 369 kts 253°
2026-04-25 13:32 35.46444 -106.10912 33958 ft 367 kts 253°
2026-04-25 13:32 35.44539 -106.16749 33935 ft 368 kts 253°
2026-04-25 13:33 35.42646 -106.22538 33901 ft 368 kts 253°
2026-04-25 13:33 35.40735 -106.28370 33866 ft 369 kts 253°
2026-04-25 13:34 35.38821 -106.34197 33834 ft 369 kts 253°
2026-04-25 13:34 35.36903 -106.40028 33752 ft 369 kts 252°
2026-04-25 13:35 35.34969 -106.45892 33780 ft 372 kts 252°
2026-04-25 13:35 35.33032 -106.51757 33802 ft 372 kts 252°
2026-04-25 13:36 35.31090 -106.57627 33797 ft 371 kts 252°
2026-04-25 13:36 35.29147 -106.63486 33805 ft 372 kts 252°
2026-04-25 13:37 35.27202 -106.69339 33814 ft 371 kts 252°
2026-04-25 13:37 35.25249 -106.75205 33810 ft 373 kts 252°
2026-04-25 13:38 35.23290 -106.81080 33806 ft 373 kts 252°
2026-04-25 13:38 35.21327 -106.86955 33810 ft 373 kts 252°
2026-04-25 13:39 35.19359 -106.92833 33805 ft 373 kts 252°
2026-04-25 13:39 35.17390 -106.98701 33802 ft 373 kts 252°
2026-04-25 13:40 35.15417 -107.04572 33811 ft 373 kts 252°
2026-04-25 13:40 35.13433 -107.10465 33807 ft 377 kts 252°
2026-04-25 13:41 35.11451 -107.16338 33805 ft 376 kts 252°
2026-04-25 13:41 35.09454 -107.22247 33814 ft 377 kts 251°
2026-04-25 13:42 35.07454 -107.28152 33803 ft 376 kts 251°
2026-04-25 13:42 35.05448 -107.34062 33811 ft 377 kts 251°
2026-04-25 13:43 35.03443 -107.39960 33798 ft 377 kts 251°
2026-04-25 13:43 35.01426 -107.45879 33810 ft 378 kts 251°
2026-04-25 13:44 34.99406 -107.51797 33811 ft 377 kts 251°
2026-04-25 13:44 34.97380 -107.57723 33813 ft 378 kts 251°
2026-04-25 13:45 34.95355 -107.63634 33822 ft 378 kts 251°
2026-04-25 13:45 34.93336 -107.69515 33793 ft 379 kts 251°
2026-04-25 13:46 34.91288 -107.75472 33811 ft 382 kts 251°
2026-04-25 13:46 34.89225 -107.81456 33843 ft 384 kts 251°
2026-04-25 13:47 34.87160 -107.87437 33824 ft 383 kts 251°
2026-04-25 13:47 34.85094 -107.93412 33824 ft 383 kts 251°
2026-04-25 13:48 34.83023 -107.99387 33828 ft 383 kts 251°
2026-04-25 13:48 34.80946 -108.05367 33822 ft 383 kts 251°
2026-04-25 13:49 34.78868 -108.11340 33823 ft 383 kts 251°
2026-04-25 13:49 34.76788 -108.17308 33821 ft 383 kts 251°
2026-04-25 13:50 34.74703 -108.23277 33817 ft 383 kts 251°
2026-04-25 13:50 34.72616 -108.29242 33819 ft 383 kts 251°
2026-04-25 13:51 34.70525 -108.35209 33823 ft 383 kts 251°
2026-04-25 13:51 34.68432 -108.41166 33822 ft 384 kts 251°
2026-04-25 13:52 34.66348 -108.47088 33813 ft 384 kts 251°
2026-04-25 13:52 34.64249 -108.53044 33812 ft 383 kts 251°
2026-04-25 13:53 34.62145 -108.58999 33815 ft 384 kts 251°
2026-04-25 13:53 34.60039 -108.64951 33813 ft 384 kts 251°
2026-04-25 13:54 34.57932 -108.70897 33820 ft 384 kts 251°
2026-04-25 13:54 34.55821 -108.76837 33823 ft 384 kts 251°
2026-04-25 13:55 34.53707 -108.82776 33811 ft 383 kts 251°
2026-04-25 13:55 34.51592 -108.88711 33808 ft 383 kts 251°
2026-04-25 13:56 34.49475 -108.94643 33813 ft 383 kts 251°
2026-04-25 13:56 34.47355 -109.00573 33842 ft 383 kts 251°
2026-04-25 13:57 34.45232 -109.06499 33805 ft 383 kts 251°
2026-04-25 13:57 34.43106 -109.12422 33830 ft 383 kts 251°
2026-04-25 13:58 34.41095 -109.18341 33869 ft 382 kts 252°
2026-04-25 13:58 34.39092 -109.24301 33897 ft 382 kts 252°
2026-04-25 13:59 34.37081 -109.30265 33924 ft 382 kts 252°
2026-04-25 13:59 34.35067 -109.36226 33939 ft 383 kts 252°
2026-04-25 14:00 34.33052 -109.42177 33948 ft 382 kts 251°
2026-04-25 14:00 34.31033 -109.48128 33936 ft 382 kts 251°
2026-04-25 14:01 34.29010 -109.54082 33924 ft 383 kts 251°
2026-04-25 14:01 34.26983 -109.60034 33903 ft 383 kts 251°
2026-04-25 14:02 34.24957 -109.65982 33864 ft 383 kts 251°
2026-04-25 14:02 34.22928 -109.71932 33930 ft 383 kts 251°
2026-04-25 14:03 34.20897 -109.77875 33976 ft 383 kts 251°
2026-04-25 14:03 34.18863 -109.83817 34008 ft 383 kts 251°
2026-04-25 14:04 34.17168 -109.88759 34027 ft 383 kts 251°
2026-04-25 14:04 34.15130 -109.94693 34045 ft 383 kts 251°
2026-04-25 14:05 34.13087 -110.00630 34025 ft 383 kts 251°
2026-04-25 14:05 34.11042 -110.06560 33992 ft 383 kts 251°
2026-04-25 14:06 34.08992 -110.12492 33970 ft 383 kts 251°
2026-04-25 14:06 34.06941 -110.18417 33945 ft 383 kts 251°
2026-04-25 14:07 34.04884 -110.24345 33913 ft 383 kts 251°
2026-04-25 14:07 34.02826 -110.30274 33823 ft 383 kts 251°
2026-04-25 14:08 34.00759 -110.36215 33859 ft 385 kts 251°
2026-04-25 14:08 33.98697 -110.42124 33852 ft 385 kts 251°
2026-04-25 14:09 33.96621 -110.48068 33860 ft 385 kts 250°
2026-04-25 14:09 33.94544 -110.54002 33847 ft 384 kts 250°
2026-04-25 14:10 33.92466 -110.59926 33847 ft 384 kts 250°
2026-04-25 14:10 33.90384 -110.65854 33874 ft 385 kts 250°
2026-04-25 14:11 33.88299 -110.71777 33846 ft 384 kts 250°
2026-04-25 14:11 33.86211 -110.77697 33861 ft 384 kts 250°
2026-04-25 14:12 33.84121 -110.83613 33854 ft 384 kts 250°
2026-04-25 14:12 33.82024 -110.89516 33800 ft 383 kts 250°
2026-04-25 14:13 33.79930 -110.95434 33844 ft 385 kts 250°
2026-04-25 14:13 33.77836 -111.01334 33847 ft 383 kts 250°
2026-04-25 14:14 33.75735 -111.07235 33823 ft 384 kts 250°
2026-04-25 14:14 33.73645 -111.13095 33845 ft 384 kts 250°
2026-04-25 14:15 33.71540 -111.18991 33835 ft 384 kts 250°
2026-04-25 14:15 33.69432 -111.24882 33834 ft 384 kts 250°
2026-04-25 14:16 33.67318 -111.30777 33836 ft 384 kts 250°
2026-04-25 14:16 33.65203 -111.36665 33842 ft 384 kts 250°
2026-04-25 14:17 33.63085 -111.42550 33830 ft 384 kts 250°
2026-04-25 14:17 33.60967 -111.48425 33833 ft 384 kts 250°
2026-04-25 14:18 33.58844 -111.54303 33814 ft 384 kts 250°
2026-04-25 14:18 33.56718 -111.60179 33869 ft 384 kts 250°
2026-04-25 14:19 33.54590 -111.66051 33882 ft 384 kts 250°
2026-04-25 14:19 33.52459 -111.71920 33888 ft 385 kts 249°
2026-04-25 14:20 33.50316 -111.77811 33887 ft 385 kts 249°
2026-04-25 14:20 33.48176 -111.83684 33887 ft 384 kts 249°
2026-04-25 14:21 33.46040 -111.89534 33864 ft 383 kts 249°
2026-04-25 14:21 33.43901 -111.95389 33873 ft 383 kts 249°
2026-04-25 14:22 33.42061 -112.01351 33908 ft 382 kts 252°
2026-04-25 14:22 33.40273 -112.07294 33870 ft 382 kts 252°
2026-04-25 14:23 33.38454 -112.13271 33885 ft 382 kts 252°
2026-04-25 14:23 33.36639 -112.19217 33861 ft 379 kts 252°
2026-04-25 14:24 33.34824 -112.25152 33866 ft 380 kts 252°
2026-04-25 14:24 33.33008 -112.31078 33867 ft 380 kts 252°
2026-04-25 14:25 33.31190 -112.37007 33900 ft 380 kts 252°
2026-04-25 14:25 33.29658 -112.41977 33863 ft 379 kts 252°
2026-04-25 14:26 33.27833 -112.47902 33858 ft 379 kts 251°
2026-04-25 14:26 33.26008 -112.53811 33854 ft 379 kts 251°
2026-04-25 14:27 33.24181 -112.59715 33858 ft 379 kts 251°
2026-04-25 14:27 33.22352 -112.65616 33855 ft 379 kts 251°
2026-04-25 14:28 33.20521 -112.71512 33853 ft 379 kts 251°
2026-04-25 14:28 33.18686 -112.77409 33841 ft 379 kts 251°
2026-04-25 14:29 33.16846 -112.83312 33838 ft 380 kts 251°
2026-04-25 14:29 33.15003 -112.89213 33835 ft 380 kts 251°
2026-04-25 14:30 33.13167 -112.95076 33815 ft 379 kts 251°
2026-04-25 14:30 33.10381 -113.03955 33815 ft 379 kts 251°
2026-04-25 14:31 33.08529 -113.09845 33821 ft 379 kts 251°
2026-04-25 14:31 33.06676 -113.15727 33824 ft 379 kts 250°
2026-04-25 14:32 33.04817 -113.21614 33822 ft 379 kts 250°
2026-04-25 14:32 33.02957 -113.27496 33823 ft 379 kts 250°
2026-04-25 14:33 33.01104 -113.33342 33824 ft 379 kts 250°
2026-04-25 14:33 32.99236 -113.39225 33823 ft 379 kts 250°
2026-04-25 14:34 32.97368 -113.45100 33824 ft 379 kts 250°
2026-04-25 14:34 32.95497 -113.50969 33828 ft 379 kts 250°
2026-04-25 14:35 32.93622 -113.56840 33826 ft 379 kts 250°
2026-04-25 14:35 32.91747 -113.62704 33809 ft 379 kts 250°
2026-04-25 14:36 32.89872 -113.68550 33835 ft 378 kts 250°
2026-04-25 14:36 32.87997 -113.74389 33831 ft 378 kts 250°
2026-04-25 14:37 32.86122 -113.80220 33838 ft 377 kts 250°
2026-04-25 14:37 32.84244 -113.86047 33835 ft 377 kts 250°
2026-04-25 14:38 32.82367 -113.91863 33844 ft 377 kts 250°
2026-04-25 14:38 32.80485 -113.97684 33842 ft 377 kts 250°
2026-04-25 14:39 32.78603 -114.03495 33847 ft 377 kts 250°
2026-04-25 14:39 32.77756 -114.09574 33893 ft 377 kts 269°
2026-04-25 14:40 32.77900 -114.15828 33817 ft 378 kts 268°
2026-04-25 14:40 32.78108 -114.22088 33840 ft 380 kts 268°
2026-04-25 14:41 32.78345 -114.28307 33852 ft 379 kts 269°
2026-04-25 14:41 32.78588 -114.34586 33841 ft 382 kts 269°
2026-04-25 14:42 32.78872 -114.38797 33843 ft 387 kts 277°
2026-04-25 14:42 32.81101 -114.46939 33877 ft 387 kts 281°
2026-04-25 14:43 32.82735 -114.53077 33857 ft 389 kts 281°
2026-04-25 14:43 32.84409 -114.59210 33853 ft 390 kts 281°
2026-04-25 14:44 32.86087 -114.65335 33857 ft 390 kts 281°
2026-04-25 14:44 32.87679 -114.71481 33831 ft 384 kts 274°
2026-04-25 14:45 32.87726 -114.77721 33813 ft 380 kts 266°
2026-04-25 14:45 32.87664 -114.83981 33853 ft 379 kts 265°
2026-04-25 14:46 32.87543 -114.90240 33842 ft 378 kts 265°
2026-04-25 14:46 32.87404 -114.96476 33571 ft 376 kts 265°
2026-04-25 14:47 32.87332 -114.99592 33357 ft 377 kts 265°
2026-04-25 14:47 32.87308 -115.00646 33282 ft 378 kts 265°
2026-04-25 14:47 32.87186 -115.05863 32965 ft 382 kts 265°
2026-04-25 14:47 32.87110 -115.09032 32749 ft 384 kts 265°
2026-04-25 14:48 32.87034 -115.12214 32531 ft 386 kts 265°
2026-04-25 14:48 32.86956 -115.15411 32324 ft 387 kts 265°
2026-04-25 14:48 32.86877 -115.18617 32116 ft 388 kts 265°
2026-04-25 14:48 32.86797 -115.21835 31907 ft 390 kts 265°
2026-04-25 14:49 32.86716 -115.25063 31694 ft 391 kts 265°
2026-04-25 14:49 32.86634 -115.28298 31470 ft 391 kts 265°
2026-04-25 14:49 32.86552 -115.31515 30674 ft 390 kts 265°
2026-04-25 14:49 32.86393 -115.34767 29450 ft 398 kts 260°
2026-04-25 14:50 32.85922 -115.38048 28319 ft 404 kts 259°
2026-04-25 14:50 32.85469 -115.41335 27583 ft 401 kts 259°
2026-04-25 14:50 32.85015 -115.44596 26710 ft 400 kts 259°
2026-04-25 14:50 32.84546 -115.47902 25852 ft 410 kts 258°
2026-04-25 14:51 32.84001 -115.51246 25320 ft 414 kts 257°
2026-04-25 14:51 32.83634 -115.53483 25056 ft 418 kts 257°
2026-04-25 14:51 32.83083 -115.56874 24634 ft 418 kts 257°
2026-04-25 14:51 32.82533 -115.60265 24189 ft 417 kts 257°
2026-04-25 14:52 32.81984 -115.63639 23775 ft 415 kts 257°
2026-04-25 14:52 32.81436 -115.66999 23287 ft 412 kts 257°
2026-04-25 14:52 32.80895 -115.70311 22772 ft 404 kts 257°
2026-04-25 14:52 32.80543 -115.72467 22471 ft 398 kts 257°
2026-04-25 14:53 32.79846 -115.76722 21875 ft 386 kts 257°
2026-04-25 14:53 32.79339 -115.79813 21448 ft 378 kts 257°
2026-04-25 14:53 32.78839 -115.82852 21041 ft 371 kts 257°
2026-04-25 14:53 32.78482 -115.85868 20531 ft 368 kts 264°
2026-04-25 14:54 32.78303 -115.88877 20170 ft 361 kts 263°
2026-04-25 14:54 32.78099 -115.91820 19795 ft 355 kts 263°
2026-04-25 14:54 32.77886 -115.94721 19405 ft 350 kts 263°
2026-04-25 14:54 32.77667 -115.97581 19013 ft 346 kts 262°
2026-04-25 14:55 32.77446 -116.00414 18663 ft 341 kts 262°
2026-04-25 14:55 32.77226 -116.03214 18288 ft 339 kts 262°
2026-04-25 14:55 32.77008 -116.05989 17844 ft 336 kts 262°
2026-04-25 14:55 32.76794 -116.08697 17461 ft 332 kts 262°
2026-04-25 14:56 32.76579 -116.11408 17105 ft 327 kts 263°
2026-04-25 14:56 32.76368 -116.14084 16749 ft 320 kts 262°
2026-04-25 14:56 32.76162 -116.16684 16394 ft 314 kts 262°
2026-04-25 14:56 32.75956 -116.19248 16036 ft 311 kts 263°
2026-04-25 14:57 32.75752 -116.21795 15673 ft 308 kts 263°
2026-04-25 14:57 32.75550 -116.24317 15347 ft 305 kts 263°
2026-04-25 14:57 32.75349 -116.26819 15010 ft 303 kts 262°
2026-04-25 14:57 32.75154 -116.29307 14590 ft 303 kts 263°
2026-04-25 14:58 32.74960 -116.31816 14092 ft 306 kts 263°
2026-04-25 14:58 32.74764 -116.34341 13628 ft 307 kts 263°
2026-04-25 14:58 32.74568 -116.36867 13148 ft 308 kts 263°
2026-04-25 14:58 32.74370 -116.39404 12681 ft 308 kts 263°
2026-04-25 14:59 32.74175 -116.41906 12201 ft 300 kts 263°
2026-04-25 14:59 32.73987 -116.44327 11777 ft 289 kts 263°
2026-04-25 14:59 32.73804 -116.46662 11353 ft 278 kts 263°
2026-04-25 14:59 32.73627 -116.48910 10969 ft 269 kts 263°
2026-04-25 15:00 32.73435 -116.51082 10570 ft 260 kts 262°
2026-04-25 15:00 32.73232 -116.53166 10284 ft 249 kts 262°
2026-04-25 15:00 32.73038 -116.55177 9974 ft 243 kts 261°
2026-04-25 15:00 32.72846 -116.57166 9660 ft 243 kts 262°
2026-04-25 15:01 32.72654 -116.59166 9395 ft 245 kts 262°
2026-04-25 15:01 32.72460 -116.61179 9078 ft 245 kts 262°
2026-04-25 15:01 32.72267 -116.63188 8757 ft 244 kts 263°
2026-04-25 15:01 32.72073 -116.65193 8467 ft 245 kts 263°
2026-04-25 15:02 32.71912 -116.67197 8194 ft 240 kts 264°
2026-04-25 15:02 32.71759 -116.69136 7860 ft 232 kts 264°
2026-04-25 15:02 32.71610 -116.71005 7562 ft 223 kts 264°
2026-04-25 15:02 32.71466 -116.72804 7280 ft 214 kts 265°
2026-04-25 15:03 32.71328 -116.74544 7044 ft 211 kts 265°
2026-04-25 15:03 32.71191 -116.76276 6765 ft 211 kts 265°
2026-04-25 15:03 32.71055 -116.78014 6526 ft 211 kts 265°
2026-04-25 15:03 32.70916 -116.79754 6269 ft 212 kts 265°
2026-04-25 15:04 32.70765 -116.81493 5997 ft 213 kts 261°
2026-04-25 15:04 32.70330 -116.83176 5711 ft 214 kts 251°
2026-04-25 15:04 32.69804 -116.84836 5484 ft 215 kts 250°
2026-04-25 15:04 32.69281 -116.86504 5264 ft 216 kts 250°
2026-04-25 15:05 32.68761 -116.88182 4995 ft 218 kts 250°
2026-04-25 15:05 32.68263 -116.89855 4732 ft 212 kts 250°
2026-04-25 15:05 32.67791 -116.91454 4504 ft 197 kts 250°
2026-04-25 15:06 32.67495 -116.94475 3991 ft 187 kts 283°
2026-04-25 15:06 32.67829 -116.95971 3801 ft 188 kts 283°
2026-04-25 15:06 32.68174 -116.97472 3625 ft 188 kts 284°
2026-04-25 15:06 32.68524 -116.98969 3432 ft 188 kts 283°
2026-04-25 15:07 32.68879 -117.00458 3196 ft 187 kts 283°
2026-04-25 15:07 32.69215 -117.01917 2990 ft 185 kts 283°
2026-04-25 15:07 32.69576 -117.03405 2803 ft 185 kts 284°
2026-04-25 15:07 32.69922 -117.04823 2620 ft 176 kts 283°
2026-04-25 15:08 32.70254 -117.06178 2379 ft 166 kts 283°
2026-04-25 15:08 32.70555 -117.07413 2147 ft 147 kts 282°
2026-04-25 15:08 32.70832 -117.08554 1939 ft 142 kts 283°
2026-04-25 15:08 32.71106 -117.09678 1727 ft 141 kts 283°
2026-04-25 15:09 32.71379 -117.10798 1486 ft 140 kts 283°
2026-04-25 15:09 32.71647 -117.11904 1233 ft 139 kts 284°
2026-04-25 15:09 32.72167 -117.14071 700 ft 131 kts 284°
2026-04-25 15:10 32.72421 -117.15124 539 ft 135 kts 285°
2026-04-25 15:10 32.72674 -117.16173 393 ft 129 kts 285°
2026-04-25 15:10 32.73156 -117.18146 46 ft 117 kts 286°
2026-04-25 15:11 32.73364 -117.19002 28 ft 98 kts 286°
2026-04-25 15:11 32.73450 -117.19401 28 ft 22 kts 262°
2026-04-25 15:11 32.73431 -117.19468 29 ft 2 kts 243°
2026-04-25 15:12 32.73428 -117.19475 29 ft 0 kts 240°
2026-04-25 15:14 32.73416 -117.19501 30 ft 8 kts 249°
2026-04-25 15:14 32.73407 -117.19566 29 ft 0 kts 263°
2026-04-25 15:14 32.73406 -117.19581 29 ft 6 kts 263°
2026-04-25 15:14 32.73416 -117.19660 28 ft 11 kts 262°
2026-04-25 15:15 32.73380 -117.19744 27 ft 11 kts 251°
2026-04-25 15:15 32.73374 -117.19767 27 ft 3 kts 252°
2026-04-25 15:15 32.73370 -117.19780 27 ft 0 kts 253°